Location: Platte
(43.3870°N, 98.8440°W)
Time: 20:02:20
(UTC-06:00)

Cosmos 304 Rocket - Pass Details

Date: 21 May 2018
Orbit: 680 x 687 km, 74.0° (Epoch: 13 December)

Event Time Altitude Azimuth Distance (km) Brightness Sun altitude
Rises 21:44:20 0° 184° (S) 3,039 6.8 -7.6°
Reaches altitude 10° 21:46:40 10° 179° (S) 2,127 5.9 -8.0°
Maximum altitude 21:51:17 49° 105° (ESE) 881 4.0 -8.6°
Drops below altitude 10° 21:55:56 10° 31° (NNE) 2,140 6.4 -9.3°
Sets 21:58:17 0° 26° (NNE) 3,059 7.3 -9.6°
